Grayling, MI

10:53 PM EDT on July 27, 2017 (GMT -0400)
Grayling

Weather History for KGOV - January, 2013

Change the Weather History Date:

Friday, January 4, 2013

  Actual Average (KHTL) Record (KHTL)
Temperature  
Mean Temperature 24 °F -  
Max Temperature 28 °F 27 °F 51 °F (1950)
Min Temperature 21 °F 10 °F -26 °F (1981)
Degree Days  
Heating Degree Days 40    
Moisture  
Dew Point 21 °F    
Average Humidity 85    
Maximum Humidity 98    
Minimum Humidity 76    
Precipitation  
Precipitation 0.00 in - - ()
Sea Level Pressure  
Sea Level Pressure 29.91 in    
Wind  
Wind Speed 12 mph (WSW)    
Max Wind Speed 18 mph    
Max Gust Speed 28 mph    
Visibility 10 miles    
Events      
Averages and records for this station are not official NWS values.
T = Trace of Precipitation, MM = Missing Value Source: NWS Daily Summary

Daily Weather History Graph

Daily Weather History Graph

Search for Another Location

Airport or City:

Trip Planner

Search our weather history database for the weather conditions in past years. The results will help you decide how hot, cold, wet, or windy it might be!

Date:

Astronomy

Jan. 04, 2013 Rise Set
Actual Time 8:15 AM EST 5:12 PM EST
Civil Twilight 7:42 AM EST 5:45 PM EST
Nautical Twilight 7:06 AM EST 6:22 PM EST
Astronomical Twilight 6:30 AM EST 6:57 PM EST
Moon 12:03 AM EST (1/4) 11:39 AM EST (1/4)
Length of Visible Light 10h 02m
Length of Day
8h 56m
Waning Gibbous, 55% of the Moon is Illuminated
Jan 4
Waning Gibbous
Jan 4
Last Quarter
Jan 11
New
Jan 18
First Quarter
Jan 26
Full

Hourly Weather History & Observations

Time (EST) Temp. Windchill Dew Point Humidity Pressure Visibility Wind Dir Wind Speed Gust Speed Precip Events Conditions
12:11 AM 25.5 °F 16.9 °F 21.4 °F 84% 29.96 in 7.0 mi WSW 8.1 mph 21.9 mph N/A   Overcast
12:32 AM 26.1 °F 15.0 °F 21.9 °F 84% 29.95 in 7.0 mi WSW 12.7 mph 21.9 mph N/A   Overcast
12:52 AM 25.7 °F 14.0 °F 21.9 °F 86% 29.94 in 7.0 mi WSW 13.8 mph 24.2 mph N/A   Overcast
1:12 AM 25.5 °F 13.3 °F 21.6 °F 85% 29.93 in 10.0 mi WSW 15.0 mph 21.9 mph N/A   Overcast
1:32 AM 25.7 °F 14.0 °F 21.7 °F 85% 29.91 in 10.0 mi WSW 13.8 mph 19.6 mph N/A   Overcast
1:52 AM 26.1 °F 14.0 °F 22.1 °F 85% 29.90 in 10.0 mi WSW 15.0 mph 24.2 mph N/A   Mostly Cloudy
2:12 AM 25.3 °F 14.1 °F 21.0 °F 84% 29.90 in 10.0 mi WSW 12.7 mph 25.3 mph N/A   Mostly Cloudy
2:34 AM 23.9 °F 13.5 °F 20.1 °F 85% 29.89 in 10.0 mi WSW 10.4 mph - N/A   Clear
2:54 AM 23.7 °F 12.1 °F 19.8 °F 85% 29.89 in 10.0 mi WSW 12.7 mph 20.7 mph N/A   Clear
3:09 AM 23.7 °F 11.5 °F 19.4 °F 84% 29.89 in 10.0 mi SW 13.8 mph 20.7 mph N/A   Clear
3:32 AM 23.5 °F 11.8 °F 19.0 °F 83% 29.88 in 10.0 mi WSW 12.7 mph 20.7 mph N/A   Clear
3:52 AM 23.7 °F 12.6 °F 18.5 °F 80% 29.87 in 10.0 mi SW 11.5 mph 20.7 mph N/A   Clear
4:12 AM 23.5 °F 10.8 °F 17.6 °F 78% 29.86 in 10.0 mi WSW 15.0 mph 25.3 mph N/A   Clear
4:32 AM 23.5 °F 10.8 °F 18.0 °F 79% 29.86 in 10.0 mi WSW 15.0 mph 25.3 mph N/A   Clear
4:52 AM 23.5 °F 11.8 °F 17.8 °F 79% 29.86 in 10.0 mi WSW 12.7 mph 21.9 mph N/A   Clear
5:12 AM 23.4 °F 10.1 °F 18.0 °F 80% 29.86 in 10.0 mi WSW 16.1 mph 21.9 mph N/A   Clear
5:32 AM 23.5 °F 11.3 °F 18.5 °F 81% 29.87 in 10.0 mi WSW 13.8 mph 20.7 mph N/A   Clear
5:52 AM 23.5 °F 11.8 °F 18.5 °F 81% 29.86 in 10.0 mi WSW 12.7 mph 24.2 mph N/A   Clear
6:33 AM 22.6 °F 10.1 °F 18.1 °F 83% 29.86 in 10.0 mi West 13.8 mph 27.6 mph N/A   Clear
6:53 AM 22.1 °F 8.0 °F 18.3 °F 85% 29.85 in 10.0 mi West 17.3 mph 24.2 mph N/A   Scattered Clouds
7:13 AM 21.9 °F 8.7 °F 18.3 °F 86% 29.85 in 10.0 mi WSW 15.0 mph 24.2 mph N/A   Clear
7:33 AM 22.1 °F 11.3 °F 18.9 °F 87% 29.85 in 10.0 mi WSW 10.4 mph 19.6 mph N/A   Clear
8:13 AM 21.9 °F 11.0 °F 18.7 °F 87% 29.84 in 10.0 mi WSW 10.4 mph 19.6 mph N/A   Scattered Clouds
8:33 AM 21.9 °F 11.0 °F 18.7 °F 87% 29.84 in 10.0 mi SW 10.4 mph 17.3 mph N/A   Scattered Clouds
8:53 AM 23.0 °F 12.4 °F 19.6 °F 87% 29.85 in 10.0 mi WSW 10.4 mph 18.4 mph N/A   Mostly Cloudy
9:13 AM 23.5 °F 13.7 °F 20.1 °F 87% 29.85 in 10.0 mi WSW 9.2 mph 17.3 mph N/A   Overcast
9:34 AM 23.5 °F 11.3 °F 19.4 °F 84% 29.87 in 10.0 mi West 13.8 mph 19.6 mph N/A   Overcast
9:54 AM 24.1 °F 10.6 °F 19.9 °F 84% 29.87 in 10.0 mi West 17.3 mph 25.3 mph N/A   Overcast
10:14 AM 24.8 °F 14.6 °F 20.7 °F 84% 29.88 in 10.0 mi West 10.4 mph 23.0 mph N/A   Overcast
10:34 AM 25.2 °F 13.3 °F 21.0 °F 84% 29.89 in 10.0 mi West 13.8 mph 21.9 mph N/A   Overcast
10:54 AM 26.1 °F 14.5 °F 21.9 °F 84% 29.88 in 10.0 mi WSW 13.8 mph 24.2 mph N/A   Overcast
11:14 AM 25.9 °F 13.3 °F 21.6 °F 84% 29.89 in 10.0 mi WSW 16.1 mph 24.2 mph N/A   Overcast
11:34 AM 25.9 °F 14.8 °F 21.0 °F 82% 29.89 in 10.0 mi West 12.7 mph 19.6 mph N/A   Overcast
11:54 AM 25.3 °F 15.3 °F 20.3 °F 81% 29.89 in 10.0 mi WSW 10.4 mph 18.4 mph N/A   Overcast
12:14 PM 25.2 °F 14.4 °F 20.3 °F 82% 29.89 in 10.0 mi West 11.5 mph 23.0 mph N/A   Overcast
12:35 PM 24.8 °F 13.4 °F 20.1 °F 82% 29.88 in 10.0 mi WSW 12.7 mph 24.2 mph N/A   Overcast
12:55 PM 24.1 °F 14.4 °F 19.9 °F 84% 29.88 in 10.0 mi West 9.2 mph 17.3 mph N/A   Overcast
1:15 PM 25.7 °F 17.1 °F 21.2 °F 83% 29.87 in 10.0 mi SW 8.1 mph 19.6 mph N/A   Overcast
1:35 PM 25.0 °F 15.5 °F 20.3 °F 82% 29.87 in 10.0 mi WSW 9.2 mph 20.7 mph N/A   Overcast
1:55 PM 26.1 °F 15.0 °F 21.0 °F 81% 29.86 in 10.0 mi SW 12.7 mph 18.4 mph N/A   Overcast
2:15 PM 26.1 °F 14.5 °F 20.5 °F 79% 29.86 in 10.0 mi WSW 13.8 mph 20.7 mph N/A   Overcast
2:35 PM 26.1 °F 14.5 °F 20.3 °F 79% 29.86 in 10.0 mi WSW 13.8 mph 23.0 mph N/A   Overcast
2:55 PM 26.1 °F 12.7 °F 20.3 °F 79% 29.86 in 10.0 mi WSW 18.4 mph 26.5 mph N/A   Overcast
3:11 PM 26.1 °F 16.2 °F 20.1 °F 78% 29.87 in 10.0 mi WSW 10.4 mph 20.7 mph N/A   Mostly Cloudy
3:31 PM 28.4 °F 19.1 °F 21.9 °F 77% 29.87 in 10.0 mi West 10.4 mph 17.3 mph N/A   Scattered Clouds
3:51 PM 26.2 °F 17.1 °F 19.8 °F 76% 29.88 in 10.0 mi WSW 9.2 mph 18.4 mph N/A   Clear
4:11 PM 28.4 °F 19.7 °F 21.9 °F 77% 29.89 in 10.0 mi WSW 9.2 mph 16.1 mph N/A   Clear
4:31 PM 28.4 °F 18.5 °F 21.7 °F 76% 29.89 in 10.0 mi WSW 11.5 mph 20.7 mph N/A   Clear
4:51 PM 26.1 °F 16.8 °F 19.9 °F 78% 29.90 in 10.0 mi West 9.2 mph 17.3 mph N/A   Clear
5:11 PM 26.1 °F 16.2 °F 20.7 °F 80% 29.91 in 10.0 mi West 10.4 mph - N/A   Clear
5:31 PM 26.1 °F 16.2 °F 21.2 °F 82% 29.92 in 10.0 mi West 10.4 mph 16.1 mph N/A   Scattered Clouds
5:51 PM 26.1 °F 15.6 °F 21.6 °F 83% 29.93 in 10.0 mi WSW 11.5 mph 17.3 mph N/A   Mostly Cloudy
6:11 PM 25.7 °F 15.1 °F 21.9 °F 86% 29.94 in 10.0 mi WSW 11.5 mph 16.1 mph N/A   Overcast
6:31 PM 26.1 °F 15.0 °F 22.3 °F 86% 29.94 in 10.0 mi WSW 12.7 mph 18.4 mph N/A   Overcast
6:52 PM 26.1 °F 15.0 °F 22.8 °F 88% 29.94 in 10.0 mi WSW 12.7 mph 18.4 mph N/A   Overcast
7:12 PM 26.1 °F 14.5 °F 23.0 °F 88% 29.96 in 10.0 mi West 13.8 mph 20.7 mph N/A   Overcast
7:32 PM 26.1 °F 16.2 °F 23.0 °F 88% 29.96 in 10.0 mi WSW 10.4 mph 17.3 mph N/A   Mostly Cloudy
7:52 PM 26.1 °F 16.2 °F 23.5 °F 90% 29.97 in 10.0 mi WSW 10.4 mph - N/A   Clear
8:12 PM 25.9 °F 16.6 °F 23.9 °F 92% 29.98 in 10.0 mi West 9.2 mph - N/A   Clear
8:32 PM 25.3 °F 16.7 °F 23.4 °F 92% 29.99 in 10.0 mi WSW 8.1 mph - N/A   Clear
8:52 PM 25.7 °F 17.1 °F 23.9 °F 93% 29.99 in 10.0 mi WSW 8.1 mph - N/A   Clear
9:12 PM 25.0 °F 17.1 °F 23.5 °F 94% 29.99 in 10.0 mi West 6.9 mph - N/A   Clear
9:32 PM 24.8 °F 19.1 °F 23.5 °F 95% 30.00 in 10.0 mi West 4.6 mph - N/A   Clear
9:53 PM 23.9 °F 19.5 °F 23.0 °F 96% 30.00 in 10.0 mi WSW 3.5 mph - N/A   Clear
10:13 PM 23.5 °F 19.1 °F 22.8 °F 97% 30.01 in 7.0 mi WSW 3.5 mph - N/A   Clear
10:33 PM 23.5 °F - 23.0 °F 98% 30.02 in 7.0 mi Calm Calm - N/A   Clear
10:53 PM 23.5 °F 16.4 °F 23.0 °F 98% 30.03 in 7.0 mi WSW 5.8 mph - N/A   Mostly Cloudy
11:13 PM 24.3 °F 18.4 °F 23.7 °F 98% 30.04 in 7.0 mi WNW 4.6 mph - N/A   Overcast
11:33 PM 23.7 °F 19.3 °F 23.0 °F 97% 30.04 in 7.0 mi West 3.5 mph - N/A   Overcast
11:53 PM 23.9 °F 18.0 °F 23.2 °F 97% 30.05 in 7.0 mi WSW 4.6 mph - N/A   Overcast